Weather History for KMZG - March, 2014

Change the Weather History Date:

Sunday, March 23, 2014

  Actual Average Record
Temperature  
Mean Temperature 64 °F -  
Max Temperature 69 °F - - ()
Min Temperature 59 °F - - ()
Degree Days  
Heating Degree Days 1    
Growing Degree Days 14 (Base 50)    
Moisture  
Dew Point 64 °F    
Average Humidity 98    
Maximum Humidity 100    
Minimum Humidity 88    
Precipitation  
Precipitation 0.00 in - - ()
Sea Level Pressure  
Sea Level Pressure 30.04 in    
Wind  
Wind Speed 15 mph (NE)    
Max Wind Speed 34 mph    
Max Gust Speed 36 mph    
Visibility 2 miles    
Events Fog    
T = Trace of Precipitation, MM = Missing Value Source: NWS Daily Summary

Daily Weather History Graph

Daily Weather History Graph

Search for Another Location

Airport or City:

Trip Planner

Search our weather history database for the weather conditions in past years. The results will help you decide how hot, cold, wet, or windy it might be!

Date:

Astronomy

Mar. 23, 2014 Rise Set
Actual Time 7:25 AM CDT 7:37 PM CDT
Civil Twilight 7:01 AM CDT 8:01 PM CDT
Nautical Twilight 6:34 AM CDT 8:28 PM CDT
Astronomical Twilight 6:07 AM CDT 8:55 PM CDT
Moon 1:31 AM CDT (3/23) 12:32 PM CDT (3/23)
Length of Visible Light 12h 59m
Length of Day
12h 12m
Waning Gibbous, 54% of the Moon is Illuminated
Mar 23
Waning Gibbous
Mar 23
Last Quarter
Mar 30
New
Apr 7
First Quarter
Apr 15
Full

Hourly Weather History & Observations

Time (CDT) Temp. Dew Point Humidity Pressure Visibility Wind Dir Wind Speed Gust Speed Precip Events Conditions
12:15 AM 69.8 °F 69.8 °F 100% 29.98 in 0.2 mi SE 6.9 mph - N/A Fog Fog
12:35 AM 69.8 °F 69.8 °F 100% 29.98 in 0.2 mi ESE 9.2 mph - N/A Fog Fog
12:55 AM 69.8 °F 69.8 °F 100% 29.98 in 0.2 mi ESE 4.6 mph 11.5 mph N/A Fog Fog
1:15 AM 69.8 °F 69.8 °F 100% 29.98 in 0.8 mi ESE 6.9 mph - N/A   Mist
1:35 AM 69.8 °F 69.8 °F 100% 29.99 in 0.2 mi SE 5.8 mph 12.7 mph N/A Fog Fog
1:55 AM 69.8 °F 69.8 °F 100% 30.00 in 0.2 mi ESE 11.5 mph - N/A Fog Fog
2:15 AM 68.0 °F 68.0 °F 100% 30.00 in 0.2 mi ESE 11.5 mph - N/A Fog Fog
2:35 AM 68.0 °F 68.0 °F 100% 29.99 in 0.2 mi ESE 11.5 mph - N/A Fog Fog
2:55 AM 68.0 °F 68.0 °F 100% 29.99 in 0.2 mi ESE 9.2 mph - N/A Fog Fog
3:15 AM 69.8 °F 69.8 °F 100% 29.98 in 0.2 mi ESE 12.7 mph - N/A Fog Fog
3:35 AM 69.8 °F 69.8 °F 100% 29.97 in 0.2 mi SE 6.9 mph - N/A Fog Fog
3:55 AM 69.8 °F 69.8 °F 100% 29.96 in 0.2 mi ESE 12.7 mph - N/A Fog Fog
4:15 AM 69.8 °F 69.8 °F 100% 29.96 in 0.2 mi ESE 11.5 mph - N/A Fog Fog
4:35 AM 69.8 °F 69.8 °F 100% 29.95 in 0.2 mi ESE 10.4 mph - N/A Fog Fog
4:55 AM 69.8 °F 69.8 °F 100% 29.96 in 0.2 mi East 9.2 mph - N/A Fog Fog
5:15 AM 69.8 °F 69.8 °F 100% 29.96 in 0.2 mi ESE 11.5 mph - N/A Fog Fog
5:35 AM 69.8 °F 69.8 °F 100% 29.96 in 1.8 mi ESE 8.1 mph - N/A   Clear
5:55 AM 69.8 °F 69.8 °F 100% 29.97 in 2.0 mi East 6.9 mph - N/A   Mostly Cloudy
6:15 AM 69.8 °F 69.8 °F 100% 29.97 in 2.5 mi ESE 8.1 mph - N/A   Overcast
6:35 AM 68.0 °F 68.0 °F 100% 29.97 in 2.0 mi ENE 5.8 mph - N/A   Mostly Cloudy
6:55 AM 68.0 °F 68.0 °F 100% 29.98 in 0.2 mi ENE 8.1 mph - N/A Fog Fog
7:15 AM 68.0 °F 68.0 °F 100% 29.99 in 0.2 mi ENE 8.1 mph - N/A Fog Fog
7:35 AM 68.0 °F 68.0 °F 100% 29.99 in 0.2 mi ENE 6.9 mph - N/A Fog Fog
7:55 AM 68.0 °F 68.0 °F 100% 30.00 in 0.2 mi NE 12.7 mph - N/A Fog Fog
8:15 AM 68.0 °F 68.0 °F 100% 30.01 in 0.2 mi NE 12.7 mph - N/A Fog Fog
8:35 AM 68.0 °F 68.0 °F 100% 30.02 in 0.2 mi NNE 15.0 mph - N/A Fog Fog
8:55 AM 68.0 °F 68.0 °F 100% 30.03 in 0.2 mi NNE 15.0 mph - N/A Fog Fog
9:15 AM 68.0 °F 68.0 °F 100% 30.04 in 0.2 mi NNE 13.8 mph - N/A Fog Fog
9:35 AM 68.0 °F 68.0 °F 100% 30.05 in 0.2 mi NE 11.5 mph - N/A Fog Fog
9:55 AM 68.0 °F 68.0 °F 100% 30.06 in 0.2 mi NE 9.2 mph - N/A Fog Fog
10:15 AM 68.0 °F 68.0 °F 100% 30.06 in 0.2 mi NE 8.1 mph - N/A Fog Fog
10:35 AM 66.2 °F 66.2 °F 100% 30.07 in 0.2 mi North 21.9 mph - N/A Fog Fog
10:55 AM 62.6 °F 62.6 °F 100% 30.07 in 0.2 mi North 26.5 mph - N/A Fog Fog
11:15 AM 62.6 °F 62.6 °F 100% 30.07 in 0.2 mi North 27.6 mph - N/A Fog Fog
11:35 AM 60.8 °F 60.8 °F 100% 30.08 in 0.8 mi North 26.5 mph - N/A   Overcast
11:55 AM 60.8 °F 60.8 °F 100% 30.09 in 0.8 mi North 25.3 mph - N/A   Overcast
12:15 PM 60.8 °F 60.8 °F 100% 30.09 in 1.0 mi North 26.5 mph - N/A   Overcast
12:35 PM 60.8 °F 60.8 °F 100% 30.09 in 1.0 mi North 28.8 mph - N/A   Overcast
12:55 PM 60.8 °F 60.8 °F 100% 30.09 in 1.2 mi North 31.1 mph - N/A   Overcast
1:15 PM 60.8 °F 60.8 °F 100% 30.09 in 0.8 mi North 27.6 mph - N/A   Overcast
1:35 PM 60.8 °F 60.8 °F 100% 30.08 in 0.8 mi North 23.0 mph - N/A   Overcast
1:55 PM 60.8 °F 60.8 °F 100% 30.08 in 0.8 mi North 25.3 mph - N/A   Overcast
2:15 PM 60.8 °F 60.8 °F 100% 30.08 in 0.8 mi NNE 23.0 mph - N/A   Overcast
2:35 PM 60.8 °F 60.8 °F 100% 30.06 in 1.2 mi North 25.3 mph - N/A   Overcast
2:55 PM 60.8 °F 60.8 °F 100% 30.05 in 1.0 mi North 26.5 mph - N/A   Overcast
3:15 PM 60.8 °F 60.8 °F 100% 30.05 in 1.2 mi NNE 26.5 mph - N/A   Overcast
3:35 PM 60.8 °F 60.8 °F 100% 30.05 in 1.8 mi North 26.5 mph 32.2 mph N/A   Overcast
3:55 PM 60.8 °F 60.8 °F 100% 30.05 in 2.0 mi NNE 28.8 mph - N/A   Overcast
4:15 PM 60.8 °F 60.8 °F 100% 30.04 in 1.8 mi NNE 25.3 mph - N/A   Overcast
4:35 PM 60.8 °F 60.8 °F 100% 30.04 in 2.0 mi NNE 27.6 mph - N/A   Mostly Cloudy
4:55 PM 60.8 °F 60.8 °F 100% 30.04 in 2.5 mi North 28.8 mph - N/A   Mostly Cloudy
5:15 PM 62.6 °F 60.8 °F 94% 30.04 in 3.0 mi NNE 25.3 mph - N/A   Mostly Cloudy
5:35 PM 62.6 °F 60.8 °F 94% 30.04 in 3.0 mi NNE 26.5 mph - N/A   Mostly Cloudy
5:55 PM 62.6 °F 60.8 °F 94% 30.05 in 3.0 mi NNE 29.9 mph - N/A   Mostly Cloudy
6:15 PM 62.6 °F 62.6 °F 100% 30.05 in 3.0 mi NNE 28.8 mph 34.5 mph N/A   Overcast
6:35 PM 62.6 °F 62.6 °F 100% 30.06 in 3.0 mi NNE 31.1 mph - N/A   Overcast
6:55 PM 60.8 °F 60.8 °F 100% 30.06 in 7.0 mi NNE 32.2 mph - N/A   Mostly Cloudy
7:15 PM 60.8 °F 59.0 °F 94% 30.07 in 5.0 mi NNE 32.2 mph - N/A   Overcast
7:35 PM 60.8 °F 59.0 °F 94% 30.08 in 7.0 mi NNE 29.9 mph - N/A   Overcast
7:55 PM 60.8 °F 59.0 °F 94% 30.08 in 6.0 mi NNE 34.5 mph - N/A   Overcast
8:15 PM 60.8 °F 57.2 °F 88% 30.09 in - NNE 29.9 mph - N/A   Overcast
8:35 PM 60.8 °F 57.2 °F 88% 30.10 in 7.0 mi NNE 32.2 mph - N/A   Overcast
8:55 PM 60.8 °F 57.2 °F 88% 30.10 in 6.0 mi NNE 27.6 mph 33.4 mph N/A   Overcast
9:15 PM 60.8 °F 57.2 °F 88% 30.11 in 8.0 mi NNE 28.8 mph - N/A   Overcast
9:35 PM 59.0 °F 57.2 °F 94% 30.12 in 6.0 mi NNE 29.9 mph - N/A   Overcast
9:55 PM 59.0 °F 57.2 °F 94% 30.12 in 6.0 mi NNE 31.1 mph - N/A   Overcast
10:15 PM 60.8 °F 57.2 °F 88% 30.13 in 7.0 mi NNE 23.0 mph 35.7 mph N/A   Overcast
10:35 PM 60.8 °F 59.0 °F 94% 30.13 in 7.0 mi NE 24.2 mph 33.4 mph N/A   Overcast
10:55 PM 60.8 °F 57.2 °F 88% 30.14 in 7.0 mi NE 28.8 mph - N/A   Overcast
11:15 PM 60.8 °F 59.0 °F 94% 30.14 in 5.0 mi NNE 24.2 mph 31.1 mph N/A   Overcast
11:35 PM 60.8 °F 59.0 °F 94% 30.13 in 7.0 mi NNE 25.3 mph 31.1 mph N/A   Overcast
11:55 PM 60.8 °F 59.0 °F 94% 30.13 in 8.0 mi NNE 25.3 mph 34.5 mph N/A   Overcast